Cloud_Cover
100 100 100 100 100 100 100 93 96 100 100 100 100 100 100 100 100 100 100 100 100 100
100 100 100 100 100 100 100 100 63 95 100 100 100 100 100 100 100 100 100 100 100 100
100 100 100 100 100 100 100 100 100 99 100 100 100 100 100 100 100 100 100 100 100 100
100 100 100 100 100 100 100 100 100 100 100 100 100 100 100 100 100 100 100 100 100 100
100 100 100 100 100 100 100 100 100 100 67 100 100 100 100 100 100 100 100 100 100 100
38 54 100 100 100 100 100 100 100 100 100 100 100 100 100 100 100 100 100 100 100 100
12 67 65 100 100 100 100 100 100 100 100 100 100 100 100 100 100 100 100 100 100 100
5 34 55 98 100 100 100 100 100 100 100 100 100 100 100 100 100 100 100 100 100 100
5 5 60 98 100 100 100 100 100 100 100 100 100 100 100 100 100 100 100 100 100 100
5 5 38 100 100 100 100 100 100 100 100 100 100 100 100 100 100 100 100 100 100 100
49 20 69 99 100 100 100 100 100 100 100 100 100 100 100 100 100 100 100 100 100 100
100 98 75 99 100 100 100 100 100 100 100 100 100 100 100 100 100 100 100 100 100 100
100 100 83 100 100 100 100 100 100 100 100 100 100 100 100 100 100 100 100 100 100 100
100 100 100 100 100 100 100 100 100 100 100 100 100 100 100 100 100 100 100 100 100 100